Time,TemperatureF,DewpointF,PressureIn,WindDirection,WindDirectionDegrees,WindSpeedMPH,WindSpeedGustMPH,Humidity,HourlyPrecipIn,Conditions,Clouds,dailyrainin,SolarRadiationWatts/m^2,SoftwareType,DateUTC
2013-10-01 00:01:00,64.9,60.6,29.89,SSE,161,0.7,1.1,86,0.00,OVC,BKN,0.00,0.0,WeatherDisplay:10.37,2013-10-01 04:01:00,
2013-10-01 00:06:00,64.9,60.6,29.89,SSW,195,0.1,1.1,86,0.00,OVC,BKN,0.00,0.0,WeatherDisplay:10.37,2013-10-01 04:06:00,
2013-10-01 00:11:00,64.9,60.6,29.89,SSW,203,0.6,2.3,86,0.00,OVC,BKN,0.00,0.0,WeatherDisplay:10.37,2013-10-01 04:11:00,
2013-10-01 00:16:00,64.8,60.5,29.89,South,176,0.5,2.3,86,0.00,OVC,BKN,0.00,0.0,WeatherDisplay:10.37,2013-10-01 04:16:00,
2013-10-01 00:21:00,65.1,60.8,29.89,SSW,193,0.5,2.3,86,0.00,OVC,BKN,0.00,0.0,WeatherDisplay:10.37,2013-10-01 04:21:00,
2013-10-01 00:26:00,65.1,60.8,29.89,South,178,0.3,2.3,86,0.00,OVC,BKN,0.00,0.0,WeatherDisplay:10.37,2013-10-01 04:26:00,
2013-10-01 00:31:00,65.1,60.8,29.89,South,177,0.7,2.3,86,0.00,OVC,BKN,0.00,0.0,WeatherDisplay:10.37,2013-10-01 04:31:00,
2013-10-01 00:36:00,65.1,60.8,29.89,South,169,1.3,3.5,86,0.00,OVC,BKN,0.00,0.0,WeatherDisplay:10.37,2013-10-01 04:36:00,
2013-10-01 00:41:00,65.3,61.0,29.89,South,184,0.5,2.3,86,0.00,OVC,BKN,0.00,0.0,WeatherDisplay:10.37,2013-10-01 04:41:00,
2013-10-01 00:46:00,65.1,61.2,29.89,South,185,1.2,2.3,87,0.00,OVC,BKN,0.00,0.0,WeatherDisplay:10.37,2013-10-01 04:46:00,
2013-10-01 00:51:00,64.9,61.0,29.89,SSE,156,1.4,3.5,87,0.00,OVC,BKN,0.00,0.0,WeatherDisplay:10.37,2013-10-01 04:51:00,
2013-10-01 00:56:00,65.5,61.5,29.88,South,191,0.9,2.3,87,0.00,OVC,BKN,0.00,0.0,WeatherDisplay:10.37,2013-10-01 04:56:00,
2013-10-01 01:01:00,65.5,61.5,29.89,South,189,0.5,2.3,87,0.00,OVC,BKN,0.00,0.0,WeatherDisplay:10.37,2013-10-01 05:01:00,
2013-10-01 01:06:00,65.5,61.5,29.89,South,190,0.1,1.1,87,0.00,OVC,BKN,0.00,0.0,WeatherDisplay:10.37,2013-10-01 05:06:00,
2013-10-01 01:11:00,65.1,61.2,29.89,SSW,194,0.2,1.4,87,0.00,OVC,BKN,0.00,0.0,WeatherDisplay:10.37,2013-10-01 05:11:00,
2013-10-01 01:16:00,65.1,61.2,29.89,South,178,0.0,1.1,87,0.00,OVC,BKN,0.00,0.0,WeatherDisplay:10.37,2013-10-01 05:16:00,
2013-10-01 01:21:00,65.3,61.3,29.89,South,184,0.4,2.3,87,0.00,OVC,BKN,0.00,0.0,WeatherDisplay:10.37,2013-10-01 05:21:00,
2013-10-01 01:26:00,65.1,61.2,29.89,South,178,0.2,1.1,87,0.00,OVC,BKN,0.00,0.0,WeatherDisplay:10.37,2013-10-01 05:26:00,
2013-10-01 01:31:00,65.1,61.2,29.88,South,185,1.0,2.3,87,0.00,OVC,BKN,0.00,0.0,WeatherDisplay:10.37,2013-10-01 05:31:00,
2013-10-01 01:36:00,65.1,61.2,29.88,South,185,0.9,2.3,87,0.00,OVC,BKN,0.00,0.0,WeatherDisplay:10.37,2013-10-01 05:36:00,
2013-10-01 01:41:00,65.1,61.2,29.89,South,189,0.7,4.6,87,0.00,OVC,BKN,0.00,0.0,WeatherDisplay:10.37,2013-10-01 05:41:00,
2013-10-01 01:46:00,65.1,61.2,29.89,South,171,0.5,1.1,87,0.00,OVC,BKN,0.00,0.0,WeatherDisplay:10.37,2013-10-01 05:46:00,
2013-10-01 01:51:00,65.1,61.2,29.89,South,186,0.4,1.1,87,0.00,OVC,BKN,0.00,0.0,WeatherDisplay:10.37,2013-10-01 05:51:00,
2013-10-01 01:56:00,65.3,61.3,29.88,South,184,0.0,0.0,87,0.00,OVC,BKN,0.00,0.0,WeatherDisplay:10.37,2013-10-01 05:56:00,
2013-10-01 02:01:00,65.1,61.2,29.89,South,185,0.0,0.0,87,0.00,BKN,,0.00,0.0,WeatherDisplay:10.37,2013-10-01 06:01:00,
2013-10-01 02:06:00,65.1,61.2,29.89,South,186,0.1,1.1,87,0.00,BKN,,0.00,0.0,WeatherDisplay:10.37,2013-10-01 06:06:00,
2013-10-01 02:11:00,65.1,61.2,29.89,South,185,0.0,0.0,87,0.00,BKN,,0.00,0.0,WeatherDisplay:10.37,2013-10-01 06:11:00,
2013-10-01 02:16:00,65.1,61.2,29.89,South,182,0.0,0.0,87,0.00,BKN,,0.00,0.0,WeatherDisplay:10.37,2013-10-01 06:16:00,
2013-10-01 02:21:00,64.9,61.0,29.89,South,182,0.0,0.0,87,0.00,BKN,,0.00,0.0,WeatherDisplay:10.37,2013-10-01 06:21:00,
2013-10-01 02:26:00,65.1,61.2,29.89,South,182,0.0,0.0,87,0.00,BKN,,0.00,0.0,WeatherDisplay:10.37,2013-10-01 06:26:00,
2013-10-01 02:31:00,65.1,61.2,29.89,South,183,0.0,0.0,87,0.00,BKN,,0.00,0.0,WeatherDisplay:10.37,2013-10-01 06:31:00,
2013-10-01 02:36:00,64.9,61.0,29.89,South,182,0.0,0.0,87,0.00,BKN,,0.00,0.0,WeatherDisplay:10.37,2013-10-01 06:36:00,
2013-10-01 02:41:00,64.9,61.0,29.89,South,182,0.0,0.0,87,0.00,BKN,,0.00,0.0,WeatherDisplay:10.37,2013-10-01 06:41:00,
2013-10-01 02:46:00,64.9,61.0,29.89,South,182,0.0,0.0,87,0.00,BKN,,0.00,0.0,WeatherDisplay:10.37,2013-10-01 06:46:00,
2013-10-01 02:51:00,64.6,60.6,29.89,South,182,0.0,0.0,87,0.00,BKN,,0.00,0.0,WeatherDisplay:10.37,2013-10-01 06:51:00,
2013-10-01 02:57:00,64.6,60.6,29.89,South,180,0.0,0.0,87,0.00,BKN,,0.00,0.0,WeatherDisplay:10.37,2013-10-01 06:57:00,
2013-10-01 03:02:00,64.6,60.6,29.89,South,180,0.0,0.0,87,0.00,SCT,BKN,0.00,0.0,WeatherDisplay:10.37,2013-10-01 07:02:00,
2013-10-01 03:07:00,64.2,60.3,29.89,South,182,0.3,1.1,87,0.00,SCT,BKN,0.00,0.0,WeatherDisplay:10.37,2013-10-01 07:07:00,
2013-10-01 03:12:00,64.2,60.3,29.89,South,189,0.3,1.1,87,0.00,SCT,BKN,0.00,0.0,WeatherDisplay:10.37,2013-10-01 07:12:00,
2013-10-01 03:17:00,64.2,60.3,29.89,South,187,0.2,1.1,87,0.00,SCT,BKN,0.00,0.0,WeatherDisplay:10.37,2013-10-01 07:17:00,
2013-10-01 03:22:00,64.2,60.3,29.89,South,188,0.0,0.0,87,0.00,SCT,BKN,0.00,0.0,WeatherDisplay:10.37,2013-10-01 07:22:00,
2013-10-01 03:27:00,64.2,60.3,29.89,South,186,0.3,1.1,87,0.00,SCT,BKN,0.00,0.0,WeatherDisplay:10.37,2013-10-01 07:27:00,
2013-10-01 03:32:00,64.0,59.8,29.89,South,189,0.6,2.3,86,0.00,SCT,BKN,0.00,0.0,WeatherDisplay:10.37,2013-10-01 07:32:00,
2013-10-01 03:37:00,63.5,59.2,29.89,SSW,192,0.7,3.5,86,0.00,SCT,BKN,0.00,0.0,WeatherDisplay:10.37,2013-10-01 07:37:00,
2013-10-01 03:42:00,63.5,59.2,29.89,South,180,0.4,2.3,86,0.00,SCT,BKN,0.00,0.0,WeatherDisplay:10.37,2013-10-01 07:42:00,
2013-10-01 03:47:00,63.3,59.1,29.89,South,191,0.5,1.1,86,0.00,SCT,BKN,0.00,0.0,WeatherDisplay:10.37,2013-10-01 07:47:00,
2013-10-01 03:52:00,63.1,59.2,29.89,SSW,192,0.4,1.1,87,0.00,SCT,BKN,0.00,0.0,WeatherDisplay:10.37,2013-10-01 07:52:00,
2013-10-01 03:57:00,62.8,58.9,29.89,SSW,194,0.7,1.1,87,0.00,SCT,BKN,0.00,0.0,WeatherDisplay:10.37,2013-10-01 07:57:00,
2013-10-01 04:02:00,62.8,59.2,29.89,South,184,0.5,2.3,88,0.00,BKN,,0.00,0.0,WeatherDisplay:10.37,2013-10-01 08:02:00,
2013-10-01 04:08:00,62.8,59.2,29.89,South,184,0.3,2.3,88,0.00,BKN,,0.00,0.0,WeatherDisplay:10.37,2013-10-01 08:08:00,
2013-10-01 04:13:00,62.6,59.0,29.89,South,186,0.2,0.0,88,0.00,BKN,,0.00,0.0,WeatherDisplay:10.37,2013-10-01 08:13:00,
2013-10-01 04:18:00,62.4,58.8,29.89,South,184,0.2,1.1,88,0.00,BKN,,0.00,0.0,WeatherDisplay:10.37,2013-10-01 08:18:00,
2013-10-01 04:23:00,62.2,58.6,29.89,SSW,203,0.5,2.3,88,0.00,BKN,,0.00,0.0,WeatherDisplay:10.37,2013-10-01 08:23:00,
2013-10-01 04:28:00,62.2,59.0,29.89,SSW,199,0.7,2.3,89,0.00,BKN,,0.00,0.0,WeatherDisplay:10.37,2013-10-01 08:28:00,
2013-10-01 04:33:00,62.2,59.0,29.89,South,187,1.0,2.3,89,0.00,BKN,,0.00,0.0,WeatherDisplay:10.37,2013-10-01 08:33:00,
2013-10-01 04:38:00,62.2,59.0,29.89,SSW,200,0.5,1.8,89,0.00,BKN,,0.00,0.0,WeatherDisplay:10.37,2013-10-01 08:38:00,
2013-10-01 04:43:00,62.2,59.0,29.89,SSW,195,0.2,1.1,89,0.00,BKN,,0.00,0.0,WeatherDisplay:10.37,2013-10-01 08:43:00,
2013-10-01 04:48:00,62.2,59.0,29.89,South,182,0.1,1.1,89,0.00,OVC,BKN,0.00,0.0,WeatherDisplay:10.37,2013-10-01 08:48:00,
2013-10-01 04:53:00,62.2,59.0,29.89,South,184,0.1,1.1,89,0.00,OVC,BKN,0.00,0.0,WeatherDisplay:10.37,2013-10-01 08:53:00,
2013-10-01 04:58:00,62.2,59.0,29.89,South,174,0.1,1.1,89,0.00,OVC,BKN,0.00,0.0,WeatherDisplay:10.37,2013-10-01 08:58:00,
2013-10-01 05:03:00,62.2,59.0,29.89,SSW,200,0.0,0.0,89,0.00,OVC,BKN,0.00,0.0,WeatherDisplay:10.37,2013-10-01 09:03:00,
2013-10-01 05:08:00,61.9,58.6,29.89,South,183,0.1,1.1,89,0.00,OVC,BKN,0.00,0.0,WeatherDisplay:10.37,2013-10-01 09:08:00,
2013-10-01 05:13:00,62.1,59.1,29.90,South,183,0.1,1.1,90,0.00,OVC,BKN,0.00,0.0,WeatherDisplay:10.37,2013-10-01 09:13:00,
2013-10-01 05:18:00,61.9,58.9,29.91,SSW,200,0.0,0.0,90,0.00,OVC,BKN,0.00,0.0,WeatherDisplay:10.37,2013-10-01 09:18:00,
2013-10-01 05:23:00,61.9,58.9,29.91,SSW,197,0.0,0.0,90,0.00,OVC,BKN,0.00,0.0,WeatherDisplay:10.37,2013-10-01 09:23:00,
2013-10-01 05:28:00,61.9,58.9,29.90,SSW,197,0.0,0.0,90,0.00,OVC,BKN,0.00,0.0,WeatherDisplay:10.37,2013-10-01 09:28:00,
2013-10-01 05:33:00,61.7,58.7,29.90,South,178,0.3,1.1,90,0.00,OVC,BKN,0.00,0.0,WeatherDisplay:10.37,2013-10-01 09:33:00,
2013-10-01 05:38:00,61.9,59.2,29.91,South,180,0.7,3.5,91,0.00,OVC,BKN,0.00,0.0,WeatherDisplay:10.37,2013-10-01 09:38:00,
2013-10-01 05:43:00,62.1,59.4,29.91,South,184,0.6,2.3,91,0.00,OVC,BKN,0.00,0.0,WeatherDisplay:10.37,2013-10-01 09:43:00,
2013-10-01 05:48:00,62.2,59.6,29.91,South,189,1.4,3.5,91,0.00,SCT,BKN,0.00,0.0,WeatherDisplay:10.37,2013-10-01 09:48:00,
2013-10-01 05:53:00,62.2,59.3,29.91,South,182,0.0,2.3,90,0.00,SCT,BKN,0.00,0.0,WeatherDisplay:10.37,2013-10-01 09:53:00,
2013-10-01 05:58:00,62.2,59.3,29.91,South,184,0.5,2.3,90,0.00,SCT,BKN,0.00,0.0,WeatherDisplay:10.37,2013-10-01 09:58:00,
2013-10-01 06:03:00,62.4,59.4,29.91,SSW,193,0.0,0.0,90,0.00,SCT,BKN,0.00,0.0,WeatherDisplay:10.37,2013-10-01 10:03:00,
2013-10-01 06:08:00,62.4,59.4,29.91,South,184,0.2,1.1,90,0.00,SCT,BKN,0.00,0.0,WeatherDisplay:10.37,2013-10-01 10:08:00,
2013-10-01 06:13:00,62.4,59.4,29.91,South,180,0.0,1.1,90,0.00,SCT,BKN,0.00,0.0,WeatherDisplay:10.37,2013-10-01 10:13:00,
2013-10-01 06:18:00,62.4,59.4,29.91,South,181,0.0,0.0,90,0.00,SCT,BKN,0.00,0.0,WeatherDisplay:10.37,2013-10-01 10:18:00,
2013-10-01 06:23:00,62.4,59.4,29.91,SSW,198,0.0,0.0,90,0.00,SCT,BKN,0.00,0.0,WeatherDisplay:10.37,2013-10-01 10:23:00,
2013-10-01 06:28:00,62.2,59.0,29.91,SSW,198,0.0,0.0,89,0.00,SCT,BKN,0.00,0.0,WeatherDisplay:10.37,2013-10-01 10:28:00,
2013-10-01 06:33:00,62.2,59.3,29.91,SSW,198,0.0,0.0,90,0.00,SCT,BKN,0.00,0.0,WeatherDisplay:10.37,2013-10-01 10:33:00,
2013-10-01 06:39:00,62.1,59.1,29.91,SSW,198,0.0,0.0,90,0.00,SCT,BKN,0.00,0.0,WeatherDisplay:10.37,2013-10-01 10:39:00,
2013-10-01 06:44:00,61.9,58.9,29.91,SSW,198,0.0,0.0,90,0.00,SCT,BKN,0.00,0.0,WeatherDisplay:10.37,2013-10-01 10:44:00,
2013-10-01 06:49:00,61.9,58.9,29.91,SSW,198,0.0,0.0,90,0.00,SCT,BKN,0.00,0.0,WeatherDisplay:10.37,2013-10-01 10:49:00,
2013-10-01 06:54:00,61.7,58.7,29.91,SSW,198,0.0,0.0,90,0.00,SCT,BKN,0.00,0.0,WeatherDisplay:10.37,2013-10-01 10:54:00,
2013-10-01 06:59:00,61.5,58.6,29.91,SSW,198,0.0,1.1,90,0.00,SCT,BKN,0.00,0.0,WeatherDisplay:10.37,2013-10-01 10:59:00,
2013-10-01 07:04:00,61.5,58.6,29.91,SSW,199,0.0,0.0,90,0.00,SCT,BKN,0.00,0.0,WeatherDisplay:10.37,2013-10-01 11:04:00,
2013-10-01 07:09:00,61.3,58.4,29.91,SSW,199,0.0,0.0,90,0.00,SCT,BKN,0.00,0.0,WeatherDisplay:10.37,2013-10-01 11:09:00,
2013-10-01 07:14:00,61.2,58.2,29.91,SSW,198,0.0,0.0,90,0.00,SCT,BKN,0.00,0.0,WeatherDisplay:10.37,2013-10-01 11:14:00,
2013-10-01 07:19:00,61.2,58.2,29.91,SSW,198,0.0,0.0,90,0.00,BKN,,0.00,0.0,WeatherDisplay:10.37,2013-10-01 11:19:00,
2013-10-01 07:24:00,61.0,58.3,29.92,SSW,198,0.0,0.0,91,0.00,BKN,,0.00,0.0,WeatherDisplay:10.37,2013-10-01 11:24:00,
2013-10-01 07:29:00,61.0,58.3,29.92,SSW,198,0.0,0.0,91,0.00,BKN,,0.00,0.0,WeatherDisplay:10.37,2013-10-01 11:29:00,
2013-10-01 07:34:00,61.0,58.3,29.92,SSW,198,0.0,0.0,91,0.00,BKN,,0.00,0.0,WeatherDisplay:10.37,2013-10-01 11:34:00,
2013-10-01 07:39:00,61.0,58.3,29.92,SSW,198,0.0,0.0,91,0.00,BKN,,0.00,0.0,WeatherDisplay:10.37,2013-10-01 11:39:00,
2013-10-01 07:44:00,61.2,58.5,29.92,SSW,197,0.0,0.0,91,0.00,BKN,,0.00,0.0,WeatherDisplay:10.37,2013-10-01 11:44:00,
2013-10-01 07:49:00,61.3,59.0,29.92,SSW,193,0.0,1.1,92,0.00,BKN,,0.00,0.0,WeatherDisplay:10.37,2013-10-01 11:49:00,
2013-10-01 07:54:00,61.5,59.2,29.92,SSE,161,0.0,0.0,92,0.00,BKN,,0.00,0.0,WeatherDisplay:10.37,2013-10-01 11:54:00,
2013-10-01 07:59:00,61.9,59.2,29.91,South,183,0.0,0.0,91,0.00,BKN,,0.00,0.0,WeatherDisplay:10.37,2013-10-01 11:59:00,
2013-10-01 08:04:00,62.1,59.4,29.92,South,184,0.0,0.0,91,0.00,BKN,,0.00,0.0,WeatherDisplay:10.37,2013-10-01 12:04:00,
2013-10-01 08:09:00,62.4,60.1,29.92,South,182,0.3,1.1,92,0.00,BKN,,0.00,0.8,WeatherDisplay:10.37,2013-10-01 12:09:00,
2013-10-01 08:14:00,63.0,60.3,29.92,South,188,0.0,1.1,91,0.00,BKN,,0.00,3.2,WeatherDisplay:10.37,2013-10-01 12:14:00,
2013-10-01 08:19:00,63.3,60.6,29.92,SSW,196,0.0,0.0,91,0.00,BKN,,0.00,9.0,WeatherDisplay:10.37,2013-10-01 12:19:00,
2013-10-01 08:24:00,63.7,60.7,29.92,SSW,192,0.0,0.0,90,0.00,BKN,,0.00,13.3,WeatherDisplay:10.37,2013-10-01 12:24:00,
2013-10-01 08:29:00,64.0,61.0,29.92,SSW,195,0.0,0.0,90,0.00,BKN,,0.00,16.2,WeatherDisplay:10.37,2013-10-01 12:29:00,
2013-10-01 08:34:00,64.2,60.6,29.92,South,186,0.0,1.1,88,0.00,BKN,,0.00,23.7,WeatherDisplay:10.37,2013-10-01 12:34:00,
2013-10-01 08:39:00,64.6,60.9,29.92,SSW,192,0.5,1.1,88,0.00,BKN,,0.00,20.8,WeatherDisplay:10.37,2013-10-01 12:39:00,
2013-10-01 08:44:00,64.6,60.6,29.92,South,182,0.0,1.1,87,0.00,BKN,,0.00,29.7,WeatherDisplay:10.37,2013-10-01 12:44:00,
2013-10-01 08:49:00,64.8,60.8,29.92,South,190,0.3,2.3,87,0.00,SCT,BKN,0.00,32.2,WeatherDisplay:10.37,2013-10-01 12:49:00,
2013-10-01 08:54:00,64.9,60.6,29.92,SSW,211,0.1,2.3,86,0.00,SCT,BKN,0.00,37.9,WeatherDisplay:10.37,2013-10-01 12:54:00,
2013-10-01 09:00:00,65.5,61.2,29.92,West,262,0.0,1.1,86,0.00,SCT,BKN,0.00,43.5,WeatherDisplay:10.37,2013-10-01 13:00:00,
2013-10-01 09:05:00,65.5,60.8,29.92,West,270,0.0,1.4,85,0.00,SCT,BKN,0.00,54.8,WeatherDisplay:10.37,2013-10-01 13:05:00,
2013-10-01 09:10:00,65.8,61.2,29.93,South,184,0.0,1.1,85,0.00,SCT,BKN,0.00,54.2,WeatherDisplay:10.37,2013-10-01 13:10:00,
2013-10-01 09:15:00,65.8,60.9,29.93,SSW,197,0.0,0.0,84,0.00,SCT,BKN,0.00,51.5,WeatherDisplay:10.37,2013-10-01 13:15:00,
2013-10-01 09:20:00,66.0,61.0,29.93,NW,322,0.3,1.5,84,0.00,BKN,,0.00,73.8,WeatherDisplay:10.37,2013-10-01 13:20:00,
2013-10-01 09:25:00,66.0,61.0,29.93,SSW,210,0.1,1.4,84,0.00,BKN,,0.00,45.8,WeatherDisplay:10.37,2013-10-01 13:25:00,
2013-10-01 09:30:00,66.2,60.9,29.92,WNW,284,0.2,1.1,83,0.00,BKN,,0.00,54.2,WeatherDisplay:10.37,2013-10-01 13:30:00,
2013-10-01 09:35:00,65.8,60.2,29.92,SSW,195,0.1,1.1,82,0.00,BKN,,0.00,53.8,WeatherDisplay:10.37,2013-10-01 13:35:00,
2013-10-01 09:40:00,65.5,59.8,29.93,SSW,197,1.7,4.6,82,0.00,BKN,,0.00,57.8,WeatherDisplay:10.37,2013-10-01 13:40:00,
2013-10-01 09:45:00,65.8,60.5,29.92,South,178,0.5,3.1,83,0.00,BKN,,0.00,56.9,WeatherDisplay:10.37,2013-10-01 13:45:00,
2013-10-01 09:50:00,65.5,60.2,29.93,SSW,211,0.3,1.1,83,0.00,BKN,,0.00,74.9,WeatherDisplay:10.37,2013-10-01 13:50:00,
2013-10-01 09:55:00,66.0,61.0,29.93,WSW,249,0.1,1.4,84,0.00,BKN,,0.00,110.4,WeatherDisplay:10.37,2013-10-01 13:55:00,
2013-10-01 10:00:00,66.4,61.1,29.93,NNW,342,0.1,3.5,83,0.00,BKN,,0.00,122.6,WeatherDisplay:10.37,2013-10-01 14:00:00,
2013-10-01 10:06:00,66.0,60.4,29.93,South,172,0.6,1.1,82,0.00,BKN,,0.00,90.2,WeatherDisplay:10.37,2013-10-01 14:06:00,
2013-10-01 10:11:00,66.4,60.7,29.93,SSW,195,0.0,1.1,82,0.00,BKN,,0.00,88.9,WeatherDisplay:10.37,2013-10-01 14:11:00,
2013-10-01 10:16:00,66.4,60.7,29.93,South,189,0.2,1.1,82,0.00,BKN,,0.00,44.0,WeatherDisplay:10.37,2013-10-01 14:16:00,
2013-10-01 10:21:00,66.2,60.5,29.92,South,183,1.3,3.5,82,0.00,BKN,,0.00,60.9,WeatherDisplay:10.37,2013-10-01 14:21:00,
2013-10-01 10:26:00,66.9,61.6,29.92,South,187,0.0,1.1,83,0.00,BKN,,0.00,489.9,WeatherDisplay:10.37,2013-10-01 14:26:00,
2013-10-01 10:31:00,67.8,61.8,29.93,SW,223,0.8,2.3,81,0.00,BKN,,0.00,536.4,WeatherDisplay:10.37,2013-10-01 14:31:00,
2013-10-01 10:36:00,69.1,61.9,29.93,South,188,0.5,4.6,78,0.00,BKN,,0.00,448.0,WeatherDisplay:10.37,2013-10-01 14:36:00,
2013-10-01 10:41:00,68.9,61.0,29.92,WSW,237,0.8,2.3,76,0.00,BKN,,0.00,165.1,WeatherDisplay:10.37,2013-10-01 14:41:00,
2013-10-01 10:46:00,68.9,61.4,29.93,South,173,0.2,2.6,77,0.00,BKN,,0.00,630.6,WeatherDisplay:10.37,2013-10-01 14:46:00,
2013-10-01 10:51:00,69.6,61.7,29.93,SSE,168,0.7,2.3,76,0.00,BKN,,0.00,705.2,WeatherDisplay:10.37,2013-10-01 14:51:00,
2013-10-01 10:57:00,70.7,62.0,29.93,NW,310,1.9,5.8,74,0.00,BKN,,0.00,830.2,WeatherDisplay:10.37,2013-10-01 14:57:00,
2013-10-01 11:02:00,70.9,60.6,29.93,South,180,0.2,1.1,70,0.00,BKN,,0.00,197.7,WeatherDisplay:10.37,2013-10-01 15:02:00,
2013-10-01 11:07:00,70.3,60.5,29.93,SW,234,1.3,5.8,71,0.00,BKN,,0.00,82.7,WeatherDisplay:10.37,2013-10-01 15:07:00,
2013-10-01 11:12:00,69.4,60.4,29.93,West,265,0.7,2.3,73,0.00,BKN,,0.00,76.1,WeatherDisplay:10.37,2013-10-01 15:12:00,
2013-10-01 11:17:00,69.3,61.0,29.93,NW,314,2.0,5.5,75,0.00,BKN,,0.00,199.3,WeatherDisplay:10.37,2013-10-01 15:17:00,
2013-10-01 11:22:00,69.6,62.1,29.92,WNW,300,2.1,3.5,77,0.00,BKN,,0.00,834.3,WeatherDisplay:10.37,2013-10-01 15:22:00,
2013-10-01 11:27:00,69.3,60.6,29.92,NW,323,2.6,4.6,74,0.00,BKN,,0.00,114.9,WeatherDisplay:10.37,2013-10-01 15:27:00,
2013-10-01 11:32:00,69.1,60.1,29.92,WNW,290,4.0,6.9,73,0.00,BKN,,0.00,101.3,WeatherDisplay:10.37,2013-10-01 15:32:00,
2013-10-01 11:37:00,68.4,60.1,29.92,NW,311,2.9,5.8,75,0.00,BKN,,0.00,136.6,WeatherDisplay:10.37,2013-10-01 15:37:00,
2013-10-01 11:42:00,68.4,60.5,29.92,WNW,298,1.3,5.8,76,0.00,BKN,,0.00,167.1,WeatherDisplay:10.37,2013-10-01 15:42:00,
2013-10-01 11:47:00,68.4,60.9,29.92,WNW,294,1.2,5.8,77,0.00,BKN,,0.00,190.0,WeatherDisplay:10.37,2013-10-01 15:47:00,
2013-10-01 11:52:00,68.9,61.8,29.92,NW,304,0.6,2.3,78,0.00,BKN,,0.00,867.9,WeatherDisplay:10.37,2013-10-01 15:52:00,
2013-10-01 11:57:00,70.7,62.8,29.91,NNW,344,0.8,3.5,76,0.00,BKN,,0.00,839.2,WeatherDisplay:10.37,2013-10-01 15:57:00,
2013-10-01 12:02:00,71.4,60.7,29.91,SW,215,0.7,3.5,69,0.00,BKN,,0.00,203.5,WeatherDisplay:10.37,2013-10-01 16:02:00,
2013-10-01 12:07:00,71.8,58.9,29.91,West,267,3.9,8.1,64,0.00,BKN,,0.00,912.8,WeatherDisplay:10.37,2013-10-01 16:07:00,
2013-10-01 12:12:00,72.3,59.0,29.91,WNW,299,1.4,4.6,63,0.00,BKN,,0.00,915.8,WeatherDisplay:10.37,2013-10-01 16:12:00,
2013-10-01 12:18:00,73.4,59.6,29.91,SSW,197,1.9,6.9,62,0.00,BKN,,0.00,837.7,WeatherDisplay:10.37,2013-10-01 16:18:00,
2013-10-01 12:23:00,73.4,58.7,29.90,SW,236,2.0,8.1,60,0.00,BKN,,0.00,1074.3,WeatherDisplay:10.37,2013-10-01 16:23:00,
2013-10-01 12:28:00,74.1,60.7,29.90,NW,311,3.4,6.1,63,0.00,BKN,,0.00,1063.1,WeatherDisplay:10.37,2013-10-01 16:28:00,
2013-10-01 12:31:00,74.8,59.5,29.91,West,271,4.6,10.4,59,0.00,BKN,,0.00,1045.5,WeatherDisplay:10.37,2013-10-01 16:31:00,
2013-10-01 12:36:00,73.9,57.7,29.90,NW,311,4.0,8.1,57,0.00,BKN,,0.00,947.3,WeatherDisplay:10.37,2013-10-01 16:36:00,
2013-10-01 12:41:00,73.9,59.2,29.90,WSW,252,4.0,4.6,60,0.00,BKN,,0.00,198.2,WeatherDisplay:10.37,2013-10-01 16:41:00,
2013-10-01 12:46:00,72.9,58.6,29.90,WNW,288,3.2,4.6,61,0.00,BKN,,0.00,181.5,WeatherDisplay:10.37,2013-10-01 16:46:00,
2013-10-01 12:51:00,72.1,59.7,29.90,WNW,288,1.3,2.6,65,0.00,BKN,,0.00,496.6,WeatherDisplay:10.37,2013-10-01 16:51:00,
2013-10-01 12:56:00,72.7,58.9,29.90,WNW,287,1.2,6.9,62,0.00,BKN,,0.00,1061.4,WeatherDisplay:10.37,2013-10-01 16:56:00,
2013-10-01 13:02:00,73.9,59.2,29.89,WNW,299,3.1,8.4,60,0.00,FEW,BKN,0.00,297.2,WeatherDisplay:10.37,2013-10-01 17:02:00,
2013-10-01 13:07:00,73.2,58.5,29.89,NW,316,4.6,6.9,60,0.00,FEW,BKN,0.00,256.4,WeatherDisplay:10.37,2013-10-01 17:07:00,
2013-10-01 13:12:00,72.3,57.2,29.89,SW,232,2.0,5.8,59,0.00,FEW,BKN,0.00,1073.7,WeatherDisplay:10.37,2013-10-01 17:12:00,
2013-10-01 13:17:00,73.9,57.3,29.89,WSW,243,1.0,8.1,56,0.00,FEW,BKN,0.00,1061.8,WeatherDisplay:10.37,2013-10-01 17:17:00,
2013-10-01 13:22:00,75.0,58.3,29.89,WNW,282,4.3,9.2,56,0.00,FEW,BKN,0.00,1093.1,WeatherDisplay:10.37,2013-10-01 17:22:00,
2013-10-01 13:27:00,74.7,56.4,29.89,SW,214,2.1,3.5,53,0.00,FEW,BKN,0.00,1187.0,WeatherDisplay:10.37,2013-10-01 17:27:00,
2013-10-01 13:32:00,75.4,56.0,29.89,South,182,0.5,5.8,51,0.00,FEW,BKN,0.00,1047.7,WeatherDisplay:10.37,2013-10-01 17:32:00,
2013-10-01 13:37:00,75.6,57.2,29.89,NW,304,5.4,9.1,53,0.00,FEW,BKN,0.00,1097.3,WeatherDisplay:10.37,2013-10-01 17:37:00,
2013-10-01 13:42:00,75.9,58.1,29.88,WSW,256,2.1,4.6,54,0.00,FEW,BKN,0.00,1166.3,WeatherDisplay:10.37,2013-10-01 17:42:00,
2013-10-01 13:47:00,76.6,56.6,29.88,West,270,0.5,2.3,50,0.00,FEW,BKN,0.00,1086.5,WeatherDisplay:10.37,2013-10-01 17:47:00,
2013-10-01 13:52:00,76.3,54.6,29.88,South,178,2.2,3.5,47,0.00,FEW,BKN,0.00,1011.7,WeatherDisplay:10.37,2013-10-01 17:52:00,
2013-10-01 13:57:00,76.8,55.1,29.88,WNW,286,2.1,2.3,47,0.00,FEW,BKN,0.00,1025.7,WeatherDisplay:10.37,2013-10-01 17:57:00,
2013-10-01 14:02:00,77.4,54.4,29.88,West,261,4.0,6.9,45,0.00,SCT,BKN,0.00,1015.4,WeatherDisplay:10.37,2013-10-01 18:02:00,
2013-10-01 14:07:00,77.2,54.8,29.88,WNW,288,3.0,6.9,46,0.00,SCT,BKN,0.00,1015.4,WeatherDisplay:10.37,2013-10-01 18:07:00,
2013-10-01 14:12:00,76.8,53.9,29.87,West,275,4.3,5.8,45,0.00,SCT,BKN,0.00,1009.1,WeatherDisplay:10.37,2013-10-01 18:12:00,
2013-10-01 14:18:00,77.4,55.0,29.87,SW,231,1.4,3.5,46,0.00,SCT,BKN,0.00,995.2,WeatherDisplay:10.37,2013-10-01 18:18:00,
2013-10-01 14:23:00,76.8,55.6,29.87,WNW,287,3.4,6.2,48,0.00,SCT,BKN,0.00,977.7,WeatherDisplay:10.37,2013-10-01 18:23:00,
2013-10-01 14:28:00,77.0,54.6,29.87,WSW,251,2.2,5.8,46,0.00,SCT,BKN,0.00,993.6,WeatherDisplay:10.37,2013-10-01 18:28:00,
2013-10-01 14:33:00,76.1,52.6,29.87,SSW,200,4.8,9.2,44,0.00,SCT,BKN,0.00,977.6,WeatherDisplay:10.37,2013-10-01 18:33:00,
2013-10-01 14:38:00,77.2,55.4,29.87,WSW,243,0.2,3.5,47,0.00,SCT,BKN,0.00,956.7,WeatherDisplay:10.37,2013-10-01 18:38:00,
2013-10-01 14:43:00,77.9,54.8,29.87,WSW,244,3.0,4.6,45,0.00,SCT,BKN,0.00,961.5,WeatherDisplay:10.37,2013-10-01 18:43:00,
2013-10-01 14:48:00,77.2,54.2,29.87,West,260,2.5,5.8,45,0.00,SCT,BKN,0.00,954.9,WeatherDisplay:10.37,2013-10-01 18:48:00,
2013-10-01 14:53:00,76.5,54.7,29.87,South,179,1.4,5.8,47,0.00,SCT,BKN,0.00,931.9,WeatherDisplay:10.37,2013-10-01 18:53:00,
2013-10-01 14:58:00,77.0,54.6,29.87,SSW,202,1.5,3.5,46,0.00,SCT,BKN,0.00,930.6,WeatherDisplay:10.37,2013-10-01 18:58:00,
2013-10-01 15:03:00,76.8,55.1,29.87,WSW,243,3.5,8.1,47,0.00,SCT,BKN,0.00,909.4,WeatherDisplay:10.37,2013-10-01 19:03:00,
2013-10-01 15:09:00,76.8,54.5,29.87,SSW,193,0.8,3.5,46,0.00,SCT,BKN,0.00,907.1,WeatherDisplay:10.37,2013-10-01 19:09:00,
2013-10-01 15:14:00,77.5,55.1,29.87,South,191,3.1,9.2,46,0.00,SCT,BKN,0.00,894.0,WeatherDisplay:10.37,2013-10-01 19:14:00,
2013-10-01 15:19:00,77.7,56.5,29.87,NW,314,2.3,5.6,48,0.00,SCT,BKN,0.00,873.5,WeatherDisplay:10.37,2013-10-01 19:19:00,
2013-10-01 15:24:00,77.2,54.8,29.87,WNW,291,3.3,7.0,46,0.00,SCT,BKN,0.00,869.1,WeatherDisplay:10.37,2013-10-01 19:24:00,
2013-10-01 15:29:00,76.6,55.5,29.86,WSW,246,3.9,3.9,48,0.00,SCT,BKN,0.00,849.3,WeatherDisplay:10.37,2013-10-01 19:29:00,
2013-10-01 15:34:00,76.5,55.9,29.85,SW,221,2.0,6.9,49,0.00,SCT,BKN,0.00,830.9,WeatherDisplay:10.37,2013-10-01 19:34:00,
2013-10-01 15:39:00,76.6,57.2,29.86,SSW,203,3.7,3.7,51,0.00,SCT,BKN,0.00,823.3,WeatherDisplay:10.37,2013-10-01 19:39:00,
2013-10-01 15:44:00,75.9,57.0,29.86,SSW,198,1.0,6.9,52,0.00,SCT,BKN,0.00,793.8,WeatherDisplay:10.37,2013-10-01 19:44:00,
2013-10-01 15:49:00,76.6,56.6,29.85,West,281,4.7,6.9,50,0.00,SCT,BKN,0.00,785.5,WeatherDisplay:10.37,2013-10-01 19:49:00,
2013-10-01 15:54:00,76.8,56.8,29.85,WSW,246,2.9,8.1,50,0.00,SCT,BKN,0.00,754.6,WeatherDisplay:10.37,2013-10-01 19:54:00,
2013-10-01 15:59:00,76.1,56.7,29.85,NW,304,3.9,9.2,51,0.00,SCT,BKN,0.00,743.3,WeatherDisplay:10.37,2013-10-01 19:59:00,
2013-10-01 16:04:00,75.0,56.2,29.85,West,262,2.4,8.1,52,0.00,SCT,BKN,0.00,724.6,WeatherDisplay:10.37,2013-10-01 20:04:00,
2013-10-01 16:09:00,75.2,56.4,29.85,WSW,249,2.7,3.5,52,0.00,SCT,BKN,0.00,714.8,WeatherDisplay:10.37,2013-10-01 20:09:00,
2013-10-01 16:14:00,75.4,54.3,29.85,West,274,1.9,3.5,48,0.00,SCT,BKN,0.00,690.4,WeatherDisplay:10.37,2013-10-01 20:14:00,
2013-10-01 16:19:00,75.0,54.6,29.85,WSW,255,3.3,8.1,49,0.00,SCT,BKN,0.00,669.3,WeatherDisplay:10.37,2013-10-01 20:19:00,
2013-10-01 16:24:00,74.8,54.4,29.85,WSW,254,6.0,9.2,49,0.00,SCT,BKN,0.00,646.5,WeatherDisplay:10.37,2013-10-01 20:24:00,
2013-10-01 16:29:00,74.5,55.7,29.85,WSW,257,1.3,3.5,52,0.00,SCT,BKN,0.00,633.5,WeatherDisplay:10.37,2013-10-01 20:29:00,
2013-10-01 16:34:00,74.3,53.9,29.85,SSW,207,2.2,6.9,49,0.00,SCT,BKN,0.00,459.4,WeatherDisplay:10.37,2013-10-01 20:34:00,
2013-10-01 16:39:00,73.9,54.7,29.85,SW,230,1.3,3.5,51,0.00,SCT,BKN,0.00,308.8,WeatherDisplay:10.37,2013-10-01 20:39:00,
2013-10-01 16:44:00,73.9,55.2,29.85,SW,220,3.4,8.1,52,0.00,SCT,BKN,0.00,111.8,WeatherDisplay:10.37,2013-10-01 20:44:00,
2013-10-01 16:49:00,73.6,55.9,29.85,South,186,1.9,4.6,54,0.00,SCT,BKN,0.00,81.0,WeatherDisplay:10.37,2013-10-01 20:49:00,
2013-10-01 16:54:00,73.2,55.6,29.86,NNW,348,5.9,9.2,54,0.00,SCT,BKN,0.00,70.9,WeatherDisplay:10.37,2013-10-01 20:54:00,
2013-10-01 16:59:00,72.7,56.1,29.85,WSW,245,2.3,4.6,56,0.00,SCT,BKN,0.00,66.7,WeatherDisplay:10.37,2013-10-01 20:59:00,
2013-10-01 17:04:00,72.7,57.0,29.86,WNW,290,3.3,8.1,58,0.00,FEW,BKN,0.00,65.1,WeatherDisplay:10.37,2013-10-01 21:04:00,
2013-10-01 17:09:00,72.1,56.5,29.86,NW,325,6.2,8.5,58,0.00,FEW,BKN,0.00,63.6,WeatherDisplay:10.37,2013-10-01 21:09:00,
2013-10-01 17:14:00,72.0,56.8,29.86,WSW,256,3.2,13.8,59,0.00,FEW,BKN,0.00,60.3,WeatherDisplay:10.37,2013-10-01 21:14:00,
2013-10-01 17:19:00,72.3,57.7,29.85,NE,44,0.7,4.6,60,0.00,FEW,BKN,0.00,56.3,WeatherDisplay:10.37,2013-10-01 21:19:00,
2013-10-01 17:24:00,72.3,57.7,29.85,South,180,1.3,4.0,60,0.00,FEW,BKN,0.00,53.2,WeatherDisplay:10.37,2013-10-01 21:24:00,
2013-10-01 17:29:00,72.1,57.5,29.85,SSW,202,2.1,8.1,60,0.00,FEW,BKN,0.00,49.4,WeatherDisplay:10.37,2013-10-01 21:29:00,
2013-10-01 17:34:00,72.0,57.3,29.85,West,278,2.6,3.9,60,0.00,FEW,BKN,0.00,44.9,WeatherDisplay:10.37,2013-10-01 21:34:00,
2013-10-01 17:39:00,72.3,57.7,29.85,West,269,1.1,4.6,60,0.00,FEW,BKN,0.00,41.4,WeatherDisplay:10.37,2013-10-01 21:39:00,
2013-10-01 17:44:00,72.1,57.5,29.85,NNW,346,1.1,5.8,60,0.00,FEW,BKN,0.00,38.6,WeatherDisplay:10.37,2013-10-01 21:44:00,
2013-10-01 17:49:00,71.8,57.6,29.85,SW,226,1.1,3.5,61,0.00,FEW,BKN,0.00,33.8,WeatherDisplay:10.37,2013-10-01 21:49:00,
2013-10-01 17:55:00,71.6,57.4,29.85,WSW,243,1.8,3.5,61,0.00,FEW,BKN,0.00,32.6,WeatherDisplay:10.37,2013-10-01 21:55:00,
2013-10-01 18:00:00,71.2,57.1,29.85,ESE,118,1.6,3.5,61,0.00,FEW,BKN,0.00,26.3,WeatherDisplay:10.37,2013-10-01 22:00:00,
2013-10-01 18:05:00,70.9,57.2,29.85,South,191,1.9,4.6,62,0.00,FEW,BKN,0.00,26.9,WeatherDisplay:10.37,2013-10-01 22:05:00,
2013-10-01 18:10:00,71.1,57.8,29.85,South,182,3.1,7.1,63,0.00,FEW,BKN,0.00,23.0,WeatherDisplay:10.37,2013-10-01 22:10:00,
2013-10-01 18:15:00,70.7,57.9,29.85,SSW,200,4.0,9.2,64,0.00,FEW,BKN,0.00,20.7,WeatherDisplay:10.37,2013-10-01 22:15:00,
2013-10-01 18:20:00,70.3,58.0,29.85,SE,145,1.0,2.3,65,0.00,SCT,BKN,0.00,10.8,WeatherDisplay:10.37,2013-10-01 22:20:00,
2013-10-01 18:25:00,70.2,58.3,29.85,SSW,207,0.5,4.6,66,0.00,SCT,BKN,0.00,10.3,WeatherDisplay:10.37,2013-10-01 22:25:00,
2013-10-01 18:30:00,70.0,58.1,29.85,SSW,208,0.0,1.1,66,0.00,SCT,BKN,0.00,8.2,WeatherDisplay:10.37,2013-10-01 22:30:00,
2013-10-01 18:35:00,69.6,58.2,29.85,SW,228,1.1,1.1,67,0.00,SCT,BKN,0.00,10.1,WeatherDisplay:10.37,2013-10-01 22:35:00,
2013-10-01 18:40:00,69.4,58.4,29.85,West,272,1.5,4.6,68,0.00,SCT,BKN,0.00,7.2,WeatherDisplay:10.37,2013-10-01 22:40:00,
2013-10-01 18:45:00,69.4,58.8,29.85,WNW,295,0.3,2.8,69,0.00,SCT,BKN,0.00,4.0,WeatherDisplay:10.37,2013-10-01 22:45:00,
2013-10-01 18:50:00,69.1,58.5,29.85,SSW,201,0.6,2.3,69,0.00,SCT,BKN,0.00,1.9,WeatherDisplay:10.37,2013-10-01 22:50:00,
2013-10-01 18:55:00,68.9,58.7,29.85,NNE,18,0.6,2.3,70,0.00,SCT,BKN,0.00,1.7,WeatherDisplay:10.37,2013-10-01 22:55:00,
2013-10-01 19:00:00,68.9,58.7,29.85,South,191,0.9,2.3,70,0.00,SCT,BKN,0.00,0.0,WeatherDisplay:10.37,2013-10-01 23:00:00,
2013-10-01 19:05:00,68.5,58.8,29.84,South,173,0.7,2.3,71,0.00,SCT,BKN,0.00,0.0,WeatherDisplay:10.37,2013-10-01 23:05:00,
2013-10-01 19:10:00,68.2,58.4,29.84,South,189,1.4,3.5,71,0.00,SCT,BKN,0.00,0.0,WeatherDisplay:10.37,2013-10-01 23:10:00,
2013-10-01 19:15:00,68.5,59.2,29.85,SSW,194,0.9,2.3,72,0.00,SCT,BKN,0.00,0.0,WeatherDisplay:10.37,2013-10-01 23:15:00,
2013-10-01 19:20:00,68.4,58.6,29.84,South,175,0.5,1.1,71,0.00,SCT,BKN,0.00,0.0,WeatherDisplay:10.37,2013-10-01 23:20:00,
2013-10-01 19:25:00,68.4,59.0,29.85,South,191,0.3,1.4,72,0.00,SCT,BKN,0.00,0.0,WeatherDisplay:10.37,2013-10-01 23:25:00,
2013-10-01 19:30:00,68.2,58.8,29.85,SSW,198,1.2,3.5,72,0.00,SCT,BKN,0.00,0.0,WeatherDisplay:10.37,2013-10-01 23:30:00,
2013-10-01 19:35:00,67.6,58.3,29.84,SSW,197,1.0,5.8,72,0.00,SCT,BKN,0.00,0.0,WeatherDisplay:10.37,2013-10-01 23:35:00,
2013-10-01 19:40:00,67.5,58.5,29.84,SSW,208,1.7,4.6,73,0.00,SCT,BKN,0.00,0.0,WeatherDisplay:10.37,2013-10-01 23:40:00,
2013-10-01 19:45:00,67.5,58.5,29.85,South,189,2.2,3.5,73,0.00,SCT,BKN,0.00,0.0,WeatherDisplay:10.37,2013-10-01 23:45:00,
2013-10-01 19:50:00,67.5,58.5,29.84,South,191,0.9,2.3,73,0.00,SCT,BKN,0.00,0.0,WeatherDisplay:10.37,2013-10-01 23:50:00,
2013-10-01 19:55:00,67.5,58.5,29.84,SSW,202,1.2,2.3,73,0.00,SCT,BKN,0.00,0.0,WeatherDisplay:10.37,2013-10-01 23:55:00,
2013-10-01 20:00:00,67.3,58.3,29.84,SSW,194,0.3,1.1,73,0.00,SCT,BKN,0.00,0.0,WeatherDisplay:10.37,2013-10-02 00:00:00,
2013-10-01 20:05:00,67.3,58.7,29.85,SSW,194,0.5,1.1,74,0.00,SCT,BKN,0.00,0.0,WeatherDisplay:10.37,2013-10-02 00:05:00,
2013-10-01 20:10:00,66.9,58.4,29.85,South,183,0.2,1.1,74,0.00,SCT,BKN,0.00,0.0,WeatherDisplay:10.37,2013-10-02 00:10:00,
2013-10-01 20:15:00,66.7,58.2,29.85,SSW,202,0.7,3.0,74,0.00,SCT,BKN,0.00,0.0,WeatherDisplay:10.37,2013-10-02 00:15:00,
2013-10-01 20:16:00,66.7,58.2,29.85,South,189,1.3,4.0,74,0.00,BKN,,0.00,0.0,WeatherDisplay:10.37,2013-10-02 00:16:00,
2013-10-01 20:21:00,66.9,58.4,29.84,SSW,192,0.8,1.1,74,0.00,BKN,,0.00,0.0,WeatherDisplay:10.37,2013-10-02 00:21:00,
2013-10-01 20:26:00,66.9,58.4,29.84,South,183,1.9,4.6,74,0.00,BKN,,0.00,0.0,WeatherDisplay:10.37,2013-10-02 00:26:00,
2013-10-01 20:31:00,66.9,58.4,29.84,South,191,1.9,3.5,74,0.00,BKN,,0.00,0.0,WeatherDisplay:10.37,2013-10-02 00:31:00,
2013-10-01 20:36:00,66.9,58.4,29.84,South,184,1.6,4.6,74,0.00,BKN,,0.00,0.0,WeatherDisplay:10.37,2013-10-02 00:36:00,
2013-10-01 20:41:00,66.9,58.4,29.84,South,191,1.9,5.8,74,0.00,BKN,,0.00,0.0,WeatherDisplay:10.37,2013-10-02 00:41:00,
2013-10-01 20:46:00,66.6,58.4,29.85,South,184,2.8,8.1,75,0.00,BKN,,0.00,0.0,WeatherDisplay:10.37,2013-10-02 00:46:00,
2013-10-01 20:51:00,66.6,58.4,29.85,SSW,198,1.5,4.6,75,0.00,BKN,,0.00,0.0,WeatherDisplay:10.37,2013-10-02 00:51:00,
2013-10-01 20:56:00,66.4,58.2,29.84,South,188,0.7,2.3,75,0.00,BKN,,0.00,0.0,WeatherDisplay:10.37,2013-10-02 00:56:00,
2013-10-01 21:01:00,66.4,58.6,29.84,South,189,0.9,2.3,76,0.00,SCT,BKN,0.00,0.0,WeatherDisplay:10.37,2013-10-02 01:01:00,
2013-10-01 21:06:00,66.0,58.2,29.84,South,172,1.3,3.5,76,0.00,SCT,BKN,0.00,0.0,WeatherDisplay:10.37,2013-10-02 01:06:00,
2013-10-01 21:11:00,66.0,58.6,29.84,South,187,1.9,3.5,77,0.00,SCT,BKN,0.00,0.0,WeatherDisplay:10.37,2013-10-02 01:11:00,
2013-10-01 21:16:00,65.8,58.4,29.84,SE,136,1.8,6.9,77,0.00,SCT,BKN,0.00,0.0,WeatherDisplay:10.37,2013-10-02 01:16:00,
2013-10-01 21:21:00,65.8,58.4,29.84,South,178,0.9,3.5,77,0.00,SCT,BKN,0.00,0.0,WeatherDisplay:10.37,2013-10-02 01:21:00,
2013-10-01 21:26:00,65.8,58.4,29.84,SSW,195,1.0,3.5,77,0.00,SCT,BKN,0.00,0.0,WeatherDisplay:10.37,2013-10-02 01:26:00,
2013-10-01 21:31:00,65.7,58.6,29.83,South,187,1.2,3.5,78,0.00,SCT,BKN,0.00,0.0,WeatherDisplay:10.37,2013-10-02 01:31:00,
2013-10-01 21:36:00,65.8,58.8,29.84,South,190,1.9,4.6,78,0.00,SCT,BKN,0.00,0.0,WeatherDisplay:10.37,2013-10-02 01:36:00,
2013-10-01 21:41:00,65.8,58.8,29.83,South,179,1.0,2.3,78,0.00,SCT,BKN,0.00,0.0,WeatherDisplay:10.37,2013-10-02 01:41:00,
2013-10-01 21:46:00,65.7,58.6,29.84,SSW,196,2.0,4.0,78,0.00,SCT,BKN,0.00,0.0,WeatherDisplay:10.37,2013-10-02 01:46:00,
2013-10-01 21:51:00,65.7,58.6,29.83,SSE,156,2.2,3.8,78,0.00,SCT,BKN,0.00,0.0,WeatherDisplay:10.37,2013-10-02 01:51:00,
2013-10-01 21:56:00,65.5,58.4,29.83,South,171,1.6,5.8,78,0.00,SCT,BKN,0.00,0.0,WeatherDisplay:10.37,2013-10-02 01:56:00,
2013-10-01 22:01:00,65.5,58.4,29.83,South,183,1.8,8.1,78,0.00,SCT,BKN,0.00,0.0,WeatherDisplay:10.37,2013-10-02 02:01:00,
2013-10-01 22:06:00,65.3,58.3,29.83,South,172,2.3,5.8,78,0.00,SCT,BKN,0.00,0.0,WeatherDisplay:10.37,2013-10-02 02:06:00,
2013-10-01 22:11:00,65.1,58.1,29.83,South,179,0.8,3.5,78,0.00,SCT,BKN,0.00,0.0,WeatherDisplay:10.37,2013-10-02 02:11:00,
2013-10-01 22:16:00,65.1,58.4,29.83,SSW,195,2.0,3.5,79,0.00,SCT,BKN,0.00,0.0,WeatherDisplay:10.37,2013-10-02 02:16:00,
2013-10-01 22:21:00,64.9,58.3,29.83,South,184,2.2,5.8,79,0.00,SCT,BKN,0.00,0.0,WeatherDisplay:10.37,2013-10-02 02:21:00,
2013-10-01 22:26:00,64.9,58.3,29.83,SSW,198,2.0,5.8,79,0.00,SCT,BKN,0.00,0.0,WeatherDisplay:10.37,2013-10-02 02:26:00,
2013-10-01 22:31:00,64.9,58.6,29.83,SSW,196,2.4,3.5,80,0.00,SCT,BKN,0.00,0.0,WeatherDisplay:10.37,2013-10-02 02:31:00,
2013-10-01 22:36:00,64.9,58.6,29.83,South,189,1.3,4.6,80,0.00,SCT,BKN,0.00,0.0,WeatherDisplay:10.37,2013-10-02 02:36:00,
2013-10-01 22:41:00,64.6,58.3,29.83,South,189,1.3,4.6,80,0.00,SCT,BKN,0.00,0.0,WeatherDisplay:10.37,2013-10-02 02:41:00,
2013-10-01 22:46:00,64.6,58.3,29.83,South,189,0.8,3.5,80,0.00,SCT,BKN,0.00,0.0,WeatherDisplay:10.37,2013-10-02 02:46:00,
2013-10-01 22:51:00,64.6,58.3,29.83,SSW,211,1.7,4.6,80,0.00,SCT,BKN,0.00,0.0,WeatherDisplay:10.37,2013-10-02 02:51:00,
2013-10-01 22:56:00,64.4,58.4,29.83,SSW,192,1.4,4.0,81,0.00,SCT,BKN,0.00,0.0,WeatherDisplay:10.37,2013-10-02 02:56:00,
2013-10-01 23:01:00,64.2,58.3,29.83,South,184,0.9,4.6,81,0.00,SCT,BKN,0.00,0.0,WeatherDisplay:10.37,2013-10-02 03:01:00,
2013-10-01 23:06:00,64.2,58.3,29.83,South,187,0.2,1.1,81,0.00,SCT,BKN,0.00,0.0,WeatherDisplay:10.37,2013-10-02 03:06:00,
2013-10-01 23:11:00,64.0,58.4,29.82,South,184,0.3,1.1,82,0.00,SCT,BKN,0.00,0.0,WeatherDisplay:10.37,2013-10-02 03:11:00,
2013-10-01 23:16:00,64.0,58.4,29.82,South,184,0.5,1.8,82,0.00,SCT,BKN,0.00,0.0,WeatherDisplay:10.37,2013-10-02 03:16:00,
2013-10-01 23:21:00,63.9,58.3,29.83,SSW,193,0.4,2.3,82,0.00,SCT,BKN,0.00,0.0,WeatherDisplay:10.37,2013-10-02 03:21:00,
2013-10-01 23:26:00,63.5,57.9,29.83,South,180,1.0,2.3,82,0.00,SCT,BKN,0.00,0.0,WeatherDisplay:10.37,2013-10-02 03:26:00,
2013-10-01 23:31:00,63.7,58.4,29.82,SSW,203,2.0,4.6,83,0.00,SCT,BKN,0.00,0.0,WeatherDisplay:10.37,2013-10-02 03:31:00,
2013-10-01 23:36:00,64.0,58.8,29.82,SSW,192,2.0,4.6,83,0.00,SCT,BKN,0.00,0.0,WeatherDisplay:10.37,2013-10-02 03:36:00,
2013-10-01 23:41:00,64.0,58.4,29.82,SSW,195,1.8,2.4,82,0.00,SCT,BKN,0.00,0.0,WeatherDisplay:10.37,2013-10-02 03:41:00,
2013-10-01 23:46:00,64.4,58.8,29.82,SSW,197,1.5,3.5,82,0.00,CLR,BKN,0.00,0.0,WeatherDisplay:10.37,2013-10-02 03:46:00,
2013-10-01 23:51:00,64.6,58.6,29.82,South,184,1.6,3.5,81,0.00,SCT,BKN,0.00,0.0,WeatherDisplay:10.37,2013-10-02 03:51:00,
2013-10-01 23:56:00,64.6,58.6,29.81,SSW,212,1.7,5.8,81,0.00,SCT,BKN,0.00,0.0,WeatherDisplay:10.37,2013-10-02 03:56:00,